Home > Weather > Ulaanbaatar > Past weeks

Flag for Mongolia Past Weather in Ulaanbaatar, Mongolia — Yesterday and Last 2 Weeks

Now
54 °F

Clear.


Feels Like: 53 °F
Forecast: 54 / 85 °F
Wind: 3 mph from Southeast

Location: Ulan-Bator

Current Time: Jul 30, 2016 at 6:49:15 AM

Latest Report: Jul 30, 2016 at 6:30 AM


Visibility: 10 mi

Pressure: 29.95 "Hg (25.64 "Hg at 1298m altitude)

Humidity: 88%

Dew Point: 50 °F

Location of UlaanbaatarLocation

Past Weather in Ulaanbaatar — Graph

°F

Ulaanbaatar Temperature Yesterday

Maximum temperature yesterday: 79 °F (at 3:30 PM)
Minimum temperature yesterday: 55 °F (at 6:00 AM)
Average temperature yesterday: 69 °F

High & Low Weather Summary for the Past Weeks

 TemperatureHumidityPressure
High86 °F (Jul 20, 5:00 PM)94% (Jul 15, 5:00 AM)30.01 "Hg (Jul 15, 5:00 AM)
Low43 °F (Jul 24, 7:00 AM)15% (Jul 27, 3:30 PM)29.56 "Hg (Jul 17, 4:00 PM)
Average67 °F58%29.80 "Hg
* Reported Jul 15 5:00 AM — Jul 30 5:30 AM, Ulaanbaatar, Weather by CustomWeather, © 2016

Note: Actual official high and low records may vary slightly from our data, if they occured in-between our weather recording intervals... More about our weather records

Advertising

Ulaanbaatar Weather History for the Previous 24 Hours

Scroll right to see more
 ConditionsComfort  
Time TempWeatherWind HumidityBarometerVisibility
5:30 AM
Sat, Jul 30
54 °FClear.No wind88%29.92 "Hg10 mi
5:00 AM59 °FClear.1 mph77%29.92 "Hg10 mi
4:30 AM55 °FClear.No wind88%29.92 "Hg10 mi
4:00 AM55 °FClear.No wind88%29.92 "Hg10 mi
3:30 AM57 °FClear.1 mph82%29.92 "Hg10 mi
3:00 AM55 °FClear.3 mph88%29.92 "Hg10 mi
2:30 AM57 °FClear.3 mph82%29.92 "Hg10 mi
2:00 AM57 °FClear.6 mph82%29.92 "Hg10 mi
1:30 AM57 °FClear.3 mph88%29.92 "Hg10 mi
1:00 AM61 °FClear.No wind77%29.92 "Hg10 mi
12:30 AM61 °FClear.3 mph83%29.92 "Hg10 mi
12:00 AM64 °FClear.No wind73%29.92 "Hg10 mi
11:30 PM
Fri, Jul 29
66 °FSunny.3 mph68%29.92 "Hg10 mi
11:00 PM66 °FSunny.1 mph64%29.92 "Hg10 mi
10:30 PM68 °FSunny.3 mph60%29.89 "Hg10 mi
10:00 PM68 °FSunny.3 mph60%29.89 "Hg10 mi
9:30 PM72 °FPassing clouds.10 mph53%29.86 "HgN/A
9:00 PM73 °FPassing clouds.8 mph47%29.86 "HgN/A
8:30 PM75 °FPassing clouds.10 mph44%29.86 "HgN/A
8:00 PM77 °FPassing clouds.10 mph42%29.86 "HgN/A
7:30 PM77 °FPassing clouds.10 mph39%29.86 "HgN/A
7:00 PM79 °FPassing clouds.8 mph37%29.83 "HgN/A
6:30 PM79 °FPassing clouds.10 mph37%29.83 "HgN/A
6:00 PM77 °FPassing clouds.10 mph39%29.86 "HgN/A
5:30 PM79 °FPassing clouds.8 mph39%29.83 "HgN/A
5:00 PM79 °FPassing clouds.10 mph39%29.83 "HgN/A
4:30 PM79 °FPassing clouds.10 mph42%29.83 "HgN/A
4:00 PM79 °FPassing clouds.10 mph37%29.83 "HgN/A
3:30 PM79 °FPassing clouds.10 mph37%29.83 "HgN/A
3:00 PM77 °FPassing clouds.13 mph39%29.83 "HgN/A
2:30 PM75 °FPassing clouds.8 mph44%29.86 "HgN/A
2:00 PM75 °FPassing clouds.10 mph44%29.86 "HgN/A
1:30 PM75 °FPassing clouds.10 mph44%29.86 "HgN/A
1:00 PM75 °FPassing clouds.13 mph47%29.86 "HgN/A
12:30 PM75 °FPassing clouds.13 mph47%29.86 "HgN/A
12:00 PM73 °FPassing clouds.6 mph50%29.86 "HgN/A
11:30 AM72 °FPassing clouds.1 mph61%29.86 "HgN/A
11:00 AM68 °FPassing clouds.3 mph69%29.86 "HgN/A
10:30 AM68 °FSunny.1 mph69%29.86 "Hg10 mi
10:00 AM68 °FSunny.No wind64%29.83 "Hg10 mi
9:30 AM66 °FSunny.1 mph68%29.86 "Hg10 mi
9:00 AM64 °FSunny.1 mph73%29.83 "Hg10 mi
8:30 AM61 °FPassing clouds.1 mph83%29.83 "HgN/A
8:00 AM57 °FPassing clouds.1 mph94%29.83 "HgN/A
7:30 AM57 °FPassing clouds.1 mph94%29.83 "HgN/A
7:00 AM57 °FPassing clouds.No wind88%29.83 "HgN/A
6:30 AM57 °FPassing clouds.1 mph88%29.83 "HgN/A
6:00 AM55 °FPassing clouds.1 mph94%29.80 "HgN/A
Weather by CustomWeather, © 2016

See weather overviewHow to use our weather pages